Home > Weather > Metairie > Past weeks

Flag for USA Past Weather in Metairie, Louisiana, USA — Yesterday and Last 2 Weeks

Now
81 °F

Scattered clouds.


Feels Like: 85 °F
Forecast: 73 / 85 °F
Wind: 10 mph from Southeast

Location: New Orleans International Airport

Current Time: May 24, 2016 at 8:28:33 PM

Latest Report: May 24, 2016 at 7:53 PM


Visibility: 10 mi

Pressure: 30.08 "Hg

Humidity: 72%

Dew Point: 71 °F

Location of MetairieLocation

Past Weather in Metairie — Graph

°F

Metairie Temperature Yesterday

Maximum temperature yesterday: 86 °F (at 12:53 PM)
Minimum temperature yesterday: 73 °F (at 4:53 AM)
Average temperature yesterday: 79 °F

High & Low Weather Summary for the Past Weeks

 TemperatureHumidityPressure
High90 °F (May 21, 4:53 PM)94% (May 11, 5:53 AM)30.16 "Hg (May 11, 5:53 AM)
Low69 °F (May 19, 10:58 PM)30% (May 14, 4:53 PM)29.85 "Hg (May 17, 3:53 PM)
Average78 °F70%30.02 "Hg
* Reported May 9 6:53 PM — May 24 6:53 PM, Metairie, Weather by CustomWeather, © 2016

Note: Actual official high and low records may vary slightly from our data, if they occured in-between our weather recording intervals... More about our weather records

Advertising

Metairie Weather History for the Previous 24 Hours

Scroll right to see more
 ConditionsComfort  
Time TempWeatherWind HumidityBarometerVisibility
6:53 PM
Tue, May 24
83 °FBroken clouds.12 mph68%30.06 "Hg10 mi
5:53 PM85 °FScattered clouds.15 mph63%30.06 "Hg10 mi
4:53 PM86 °FScattered clouds.15 mph63%30.06 "Hg10 mi
3:53 PM88 °FScattered clouds.13 mph59%30.08 "Hg10 mi
2:53 PM88 °FScattered clouds.14 mph57%30.08 "Hg10 mi
1:53 PM88 °FBroken clouds.10 mph59%30.09 "Hg10 mi
12:53 PM88 °FScattered clouds.9 mph57%30.10 "Hg10 mi
11:53 AM86 °FPartly sunny.7 mph55%30.10 "Hg10 mi
10:53 AM85 °FScattered clouds.9 mph57%30.10 "Hg10 mi
9:53 AM84 °FScattered clouds.10 mph63%30.09 "Hg10 mi
8:53 AM81 °FPassing clouds.9 mph67%30.08 "Hg10 mi
7:53 AM78 °FSunny.6 mph69%30.06 "Hg10 mi
6:53 AM73 °FPassing clouds.6 mph79%30.04 "Hg10 mi
5:53 AM71 °FPassing clouds.5 mph78%30.02 "Hg10 mi
4:53 AM70 °FPassing clouds.5 mph81%30.01 "Hg10 mi
3:53 AM71 °FPassing clouds.5 mph78%30.01 "Hg10 mi
2:53 AM70 °FClear.5 mph79%30.01 "Hg10 mi
1:53 AM72 °FPassing clouds.6 mph76%30.01 "Hg10 mi
12:53 AM72 °FClear.6 mph76%30.01 "Hg10 mi
11:53 PM
Mon, May 23
73 °FPassing clouds.7 mph76%30.02 "Hg10 mi
10:53 PM75 °FPassing clouds.7 mph71%29.99 "Hg10 mi
9:53 PM76 °FPassing clouds.9 mph67%29.98 "Hg10 mi
8:53 PM78 °FPassing clouds.7 mph60%29.97 "Hg10 mi
Weather by CustomWeather, © 2016

See weather overviewHow to use our weather pages